Weather in Galimy

Russia / Magadan District     62°21′15″N   155°57′28″E
temp.,
°C
wind,
m/s
gust,
m/s
humid.,
%
clouds,
%
prec.,
mm/h
press.,
hPa
HPBL,
m
23 october, sat
sat2323:00−24nnw219434 0.0 101013
02:00−23nnw119466 0.0 101012
05:00−23nnw119387 0.0 101113
08:00−20n119194 0.0 101114
11:00−17ene1075100 0.0 101077
14:00−15e1173100 0.0 1010118
17:00−16nne1187100 0.0 101110
20:00−17n2291100 0.0 101214
24 october, sun
sun2423:00−17n2290100 0.0 101326
02:00−17n228999 0.0 101254
05:00−18nnw229187 0.0 101331
08:00−20nnw229138 0.0 101423
11:00−17n237811 0.0 1014108
14:00−15n227822 0.0 1012138
17:00−20nnw22925 0.0 101411
20:00−21nw11925 0.0 101411
25 october, mon
mon2523:00−21wnw119249 0.0 10139
02:00−21sw119367 0.0 10119
05:00−19s2294100 0.0 100922
08:00−18s3396100 0.0 100852
11:00−14s3496100 0.0 1006150
14:00−12s2494100 0.0 1004170
17:00−13ssw119899 0.1 100511
20:00−14wnw119740 0.0 10069
26 october, tue
tue2623:00−17wnw229832 0.0 100810
02:00−18nw229839 0.0 100912
05:00−19nnw229836 0.0 101012
08:00−20nnw229835 0.0 101211
11:00−15n11895 0.0 101155
14:00−13nne11885 0.0 101130
17:00−18nnw11955 0.0 101410
20:00−19nw11965 0.0 101610
27 october, wed
wed2723:00−19nw11945 0.0 10169
02:00−19nw11925 0.0 10169
05:00−19w019115 0.0 10169
08:00−19ssw11916 0.0 10179
11:00−14s22835 0.0 101659
14:00−12s22845 0.0 101551
17:00−17wsw11895 0.0 10189
20:00−17w11875 0.0 10199